Flag for West Bank Weather past 2 weeks in Tulkarm, West Bank

Now
63 °F

Clear.


Feels Like: 63 °F
Forecast: 56 / 68 °F
Wind: 6 mph from East

Location: Dov Airport

Current Time: Dec 17, 2014 at 11:49:02 PM

Latest Report: Dec 17, 2014 at 10:50 PM


Visibility: 10 mi

Pressure: 30.09 "Hg

Humidity: 52%

Dew point: 45 °F

Location of TulkarmLocation

Historic Weather in Tulkarm — Graph

°F

Tulkarm temperature yesterday

Maximum temperature yesterday: 68 °F (at 11:50 AM)
Minimum temperature yesterday: 55 °F (at 5:50 AM)
Average temperature yesterday: 63 °F

Past Weeks' High & Low Weather Summary

 TemperatureHumidityPressure
High81 °F (Dec 11, 1:50 PM)88% (Dec 14, 5:50 AM)30.21 "Hg (Dec 14, 5:50 AM)
Low55 °F (Dec 15, 5:00 AM)32% (Dec 13, 10:50 AM)29.74 "Hg (Dec 9, 5:50 AM)
Average67 °F66%30.03 "Hg
* Reported Dec 2 9:50 PM — Dec 17 9:50 PM, Tulkarm, Weather by CustomWeather, © 2014

Note: Actual official high and low records may vary slightly from our data, if they occured in-between our weather recording intervals... More about our weather records

Advertising

Tulkarm weather history for previous 24 hours

 ConditionsComfort  
Time TempWeatherWind HumidityBarometerVisibility
9:50 PM
Dec 17
61 °FClear.6 mph63%30.09 "Hg10 mi
8:50 PM63 °FClear.6 mph59%30.09 "Hg10 mi
7:50 PM64 °FClear.5 mph52%30.12 "Hg10 mi
6:50 PM66 °FClear.1 mph46%30.12 "Hg10 mi
5:50 PM66 °FClear.No wind46%30.12 "Hg10 mi
4:50 PM68 °FClear.2 mph43%30.09 "Hg10 mi
3:50 PM70 °FSunny.2 mph38%30.12 "Hg10 mi
2:50 PM72 °FPassing clouds.6 mph36%30.09 "HgN/A
1:50 PM72 °FPassing clouds.5 mph33%30.12 "HgN/A
12:50 PM72 °FPassing clouds.7 mph33%30.12 "HgN/A
11:50 AM72 °FPassing clouds.7 mph33%30.12 "HgN/A
10:50 AM70 °FPassing clouds.6 mph38%30.15 "HgN/A
9:50 AM66 °FPassing clouds.6 mph46%30.18 "HgN/A
8:50 AM63 °FSunny.6 mph49%30.18 "Hg10 mi
7:50 AM61 °FSunny.5 mph52%30.18 "Hg10 mi
6:50 AM57 °FSunny.6 mph59%30.18 "Hg10 mi
5:50 AM55 °FClear.6 mph59%30.18 "Hg10 mi
4:50 AM57 °FClear.7 mph59%30.18 "Hg10 mi
Weather by CustomWeather, © 2014

See weather overviewHow to use our weather pages